| time (UTC) | temp F | wind direction | speed knots | gust knots | rain 1hr in | rain 24hr in | rain mn in | humidity % | barometer mb |
| 20260904190058 | 59 | 111 | 0.0 | 2.6 | 0.00 | 0.25 | 0.01 | 85 | 1014.6 |
| 20260904184555 | 58 | 0 | 0.9 | 2.6 | 0.00 | 0.27 | 0.01 | 85 | 1014.5 |
| 20260904183107 | 58 | 321 | 0.9 | 3.5 | 0.00 | 0.27 | 0.01 | 89 | 1014.5 |
| 20260904181559 | 57 | 360 | 0.9 | 2.6 | 0.00 | 0.27 | 0.01 | 90 | 1014.5 |
| 20260904180059 | 56 | 0 | 0.9 | 2.6 | 0.00 | 0.27 | 0.01 | 91 | 1014.3 |
| 20260904174550 | 56 | 11 | 0.9 | 2.6 | 0.00 | 0.27 | 0.01 | 94 | 1014.2 |
| 20260904173101 | 55 | 0 | 0.0 | 2.6 | 0.01 | 0.27 | 0.01 | 95 | 1014.0 |
| 20260904171610 | 54 | 0 | 0.9 | 1.7 | 0.01 | 0.27 | 0.01 | 96 | 1013.9 |
| 20260904170105 | 54 | 348 | 0.0 | 1.7 | 0.01 | 0.27 | 0.01 | 96 | 1014.0 |
| 20260904164600 | 54 | 0 | 0.0 | 1.7 | 0.01 | 0.29 | 0.01 | 97 | 1013.9 |
| 20260904163057 | 54 | 0 | 0.0 | 1.7 | 0.00 | 0.28 | 0.00 | 96 | 1013.7 |
| 20260904161552 | 53 | 0 | 0.0 | 0.9 | 0.00 | 0.28 | 0.00 | 96 | 1013.7 |
| 20260904160052 | 53 | 0 | 0.0 | 0.0 | 0.00 | 0.28 | 0.00 | 96 | 1013.7 |
| 20260904154559 | 53 | 0 | 0.0 | 0.0 | 0.00 | 0.33 | 0.00 | 96 | 1013.6 |
| 20260904153109 | 53 | 0 | 0.0 | 1.7 | 0.00 | 0.33 | 0.00 | 96 | 1013.6 |
| 20260904151554 | 53 | 0 | 0.0 | 0.9 | 0.00 | 0.33 | 0.00 | 96 | 1013.3 |
| 20260904144603 | 53 | 0 | 0.0 | 0.9 | 0.00 | 0.39 | 0.00 | 96 | 1012.9 |
| 20260904143055 | 53 | 0 | 0.0 | 1.7 | 0.00 | 0.39 | 0.00 | 96 | 1012.8 |
| 20260904141552 | 53 | 234 | 0.9 | 1.7 | 0.00 | 0.39 | 0.00 | 96 | 1012.6 |
| 20260904140051 | 53 | 0 | 0.0 | 0.9 | 0.00 | 0.39 | 0.00 | 96 | 1012.4 |
| 20260904134601 | 53 | 0 | 0.0 | 1.7 | 0.00 | 0.46 | 0.00 | 96 | 1012.2 |
| 20260904133053 | 52 | 0 | 0.0 | 0.9 | 0.00 | 0.46 | 0.00 | 96 | 1012.2 |
| 20260904131601 | 52 | 88 | 0.0 | 0.9 | 0.00 | 0.46 | 0.00 | 96 | 1012.2 |
| 20260904130048 | 52 | 0 | 0.0 | 0.0 | 0.00 | 0.46 | 0.00 | 96 | 1012.0 |
| 20260904124551 | 52 | 0 | 0.0 | 0.0 | 0.00 | 0.52 | 0.00 | 96 | 1012.0 |
| 20260904123049 | 52 | 0 | 0.0 | 0.0 | 0.00 | 0.52 | 0.00 | 96 | 1011.9 |
| 20260904121552 | 52 | 0 | 0.0 | 0.0 | 0.00 | 0.52 | 0.00 | 96 | 1011.8 |
| 20260904120057 | 52 | 0 | 0.0 | 0.0 | 0.00 | 0.52 | 0.00 | 96 | 1011.7 |
| 20260904114557 | 52 | 0 | 0.0 | 0.9 | 0.00 | 0.56 | 0.00 | 96 | 1011.7 |
| 20260904113053 | 52 | 0 | 0.0 | 0.0 | 0.00 | 0.56 | 0.00 | 96 | 1011.5 |
| 20260904111601 | 52 | 0 | 0.0 | 1.7 | 0.00 | 0.56 | 0.00 | 96 | 1011.5 |
| 20260904110100 | 52 | 0 | 0.0 | 2.6 | 0.00 | 0.56 | 0.00 | 96 | 1011.4 |
| 20260904104558 | 51 | 0 | 0.0 | 0.0 | 0.00 | 0.58 | 0.00 | 96 | 1011.2 |
| 20260904103056 | 51 | 238 | 0.9 | 2.6 | 0.00 | 0.58 | 0.00 | 96 | 1011.2 |
| 20260904101553 | 51 | 246 | 0.0 | 1.7 | 0.00 | 0.58 | 0.00 | 95 | 1011.1 |
| 20260904100107 | 51 | 268 | 0.9 | 1.7 | 0.00 | 0.58 | 0.00 | 95 | 1011.0 |
| 20260904094603 | 52 | 0 | 0.0 | 0.9 | 0.00 | 0.58 | 0.00 | 95 | 1011.1 |
| 20260904093051 | 52 | 0 | 0.0 | 2.6 | 0.00 | 0.58 | 0.00 | 95 | 1011.0 |
| 20260904091559 | 52 | 244 | 0.9 | 2.6 | 0.00 | 0.58 | 0.00 | 95 | 1011.1 |
| 20260904090057 | 53 | 0 | 0.0 | 0.9 | 0.00 | 0.58 | 0.00 | 94 | 1011.0 |
| 20260904084552 | 53 | 0 | 0.0 | 1.7 | 0.00 | 0.60 | 0.00 | 94 | 1010.9 |
| 20260904083104 | 53 | 0 | 0.0 | 0.9 | 0.00 | 0.60 | 0.00 | 95 | 1010.9 |
| 20260904081556 | 53 | 0 | 0.0 | 1.7 | 0.00 | 0.60 | 0.00 | 95 | 1010.8 |
| 20260904080051 | 54 | 0 | 0.0 | 1.7 | 0.00 | 0.60 | 0.00 | 95 | 1010.9 |
| 20260904074551 | 53 | 0 | 0.0 | 0.0 | 0.00 | 0.60 | 0.00 | 95 | 1010.8 |
| 20260904073051 | 54 | 270 | 0.0 | 0.9 | 0.00 | 0.60 | 0.00 | 93 | 1010.8 |
| 20260904071554 | 54 | 262 | 0.9 | 2.6 | 0.00 | 0.60 | 0.00 | 94 | 1010.8 |
| 20260904064553 | 54 | 0 | 0.0 | 0.0 | 0.00 | 0.60 | 0.60 | 94 | 1010.8 |
| 20260904063105 | 54 | 0 | 0.0 | 0.9 | 0.00 | 0.60 | 0.60 | 94 | 1010.8 |
| 20260904061550 | 54 | 0 | 0.0 | 2.6 | 0.01 | 0.60 | 0.60 | 94 | 1010.9 |
| 20260904054628 | 55 | 238 | 1.7 | 2.6 | 0.01 | 0.60 | 0.60 | 94 | 1011.0 |
| 20260904053053 | 55 | 224 | 0.0 | 1.7 | 0.01 | 0.60 | 0.60 | 93 | 1010.9 |
| 20260904051554 | 55 | 0 | 0.0 | 1.7 | 0.00 | 0.58 | 0.58 | 93 | 1011.1 |
| 20260904050050 | 55 | 224 | 0.0 | 0.9 | 0.00 | 0.58 | 0.58 | 93 | 1011.2 |
| 20260904044557 | 55 | 0 | 0.0 | 0.9 | 0.00 | 0.58 | 0.58 | 92 | 1011.2 |
| 20260904043103 | 55 | 123 | 0.0 | 1.7 | 0.00 | 0.58 | 0.58 | 91 | 1011.0 |
| 20260904041604 | 55 | 0 | 0.0 | 0.9 | 0.00 | 0.58 | 0.58 | 92 | 1011.1 |
| 20260904034551 | 56 | 0 | 0.0 | 0.9 | 0.00 | 0.58 | 0.58 | 90 | 1010.9 |
| 20260904033051 | 56 | 0 | 0.0 | 0.0 | 0.00 | 0.58 | 0.58 | 89 | 1010.6 |
| 20260904031605 | 56 | 0 | 0.0 | 0.9 | 0.00 | 0.58 | 0.58 | 90 | 1010.4 |
| 20260904030054 | 56 | 0 | 0.0 | 1.7 | 0.00 | 0.58 | 0.58 | 88 | 1010.3 |
| 20260904024558 | 57 | 0 | 0.0 | 0.0 | 0.01 | 0.58 | 0.58 | 87 | 1010.5 |
| 20260904023106 | 57 | 0 | 0.0 | 2.6 | 0.01 | 0.58 | 0.58 | 84 | 1010.4 |
| 20260904021558 | 58 | 0 | 0.0 | 0.0 | 0.01 | 0.58 | 0.58 | 83 | 1010.3 |
| 20260904020101 | 58 | 0 | 0.0 | 1.7 | 0.01 | 0.58 | 0.58 | 82 | 1010.4 |
| 20260904014617 | 59 | 0 | 0.0 | 1.7 | 0.00 | 0.58 | 0.58 | 81 | 1010.4 |
| 20260904013059 | 59 | 0 | 0.0 | 1.7 | 0.01 | 0.58 | 0.58 | 81 | 1010.3 |
| 20260904011556 | 59 | 43 | 0.0 | 5.2 | 0.01 | 0.58 | 0.58 | 81 | 1010.2 |
| 20260904010110 | 59 | 52 | 0.0 | 3.5 | 0.01 | 0.58 | 0.58 | 81 | 1010.1 |
| 20260904004558 | 59 | 254 | 0.0 | 2.6 | 0.02 | 0.58 | 0.58 | 82 | 1010.2 |
| 20260904003101 | 59 | 201 | 1.7 | 4.3 | 0.01 | 0.57 | 0.57 | 79 | 1010.1 |
| 20260904001556 | 60 | 168 | 0.0 | 7.0 | 0.02 | 0.57 | 0.57 | 76 | 1010.1 |
| 20260904000054 | 61 | 319 | 0.9 | 5.2 | 0.02 | 0.57 | 0.57 | 77 | 1010.2 |
| 20260903234553 | 61 | 83 | 0.9 | 6.1 | 0.02 | 0.56 | 0.56 | 77 | 1010.3 |
| 20260903233059 | 61 | 65 | 1.7 | 6.1 | 0.03 | 0.56 | 0.56 | 79 | 1010.3 |
| 20260903231557 | 60 | 30 | 0.9 | 5.2 | 0.02 | 0.55 | 0.55 | 82 | 1010.3 |
| 20260903230100 | 59 | 0 | 1.7 | 4.3 | 0.03 | 0.55 | 0.55 | 85 | 1010.3 |
| 20260903224548 | 59 | 82 | 0.9 | 4.3 | 0.03 | 0.58 | 0.54 | 83 | 1010.4 |
| 20260903223107 | 60 | 0 | 0.0 | 2.6 | 0.04 | 0.58 | 0.52 | 81 | 1010.4 |
| 20260903221555 | 61 | 0 | 0.9 | 6.1 | 0.05 | 0.58 | 0.52 | 81 | 1010.3 |
| 20260903220050 | 61 | 61 | 0.0 | 4.3 | 0.06 | 0.57 | 0.52 | 85 | 1010.3 |
| 20260903214601 | 60 | 18 | 0.9 | 7.0 | 0.05 | 0.62 | 0.50 | 92 | 1010.3 |
| 20260903213053 | 58 | 0 | 0.0 | 4.3 | 0.05 | 0.61 | 0.49 | 93 | 1010.6 |
| 20260903211607 | 58 | 0 | 0.9 | 6.1 | 0.05 | 0.60 | 0.48 | 94 | 1010.4 |
| 20260903210048 | 58 | 78 | 0.9 | 4.3 | 0.05 | 0.58 | 0.46 | 95 | 1010.3 |
| 20260903204556 | 56 | 93 | 0.0 | 2.6 | 0.05 | 0.64 | 0.45 | 96 | 1010.4 |
| 20260903203053 | 55 | 92 | 0.0 | 2.6 | 0.05 | 0.63 | 0.44 | 96 | 1010.4 |
| 20260903201551 | 54 | 0 | 0.0 | 7.8 | 0.05 | 0.61 | 0.42 | 95 | 1010.4 |
| 20260903200056 | 54 | 321 | 1.7 | 5.2 | 0.05 | 0.60 | 0.41 | 95 | 1010.4 |
| 20260903194554 | 54 | 0 | 0.0 | 1.7 | 0.04 | 0.64 | 0.40 | 94 | 1010.6 |
| 20260903193052 | 54 | 0 | 0.0 | 2.6 | 0.04 | 0.63 | 0.39 | 94 | 1010.5 |
| 20260903191558 | 54 | 119 | 0.0 | 1.7 | 0.02 | 0.61 | 0.37 | 95 | 1010.7 |